DW9113 Weather Reports


Display with metric or nautical units.
time (UTC)temp
F
wind
direction
speed
MPH
gust
MPH
rain 1hr
in
rain 24hr
in
rain mn
in
humidity
%
barometer
mb
20191015170046 43 89 1.0 8.0 0.00 0.01 0.01 93 1009.6
20191015164524 42 105 2.0 7.0 0.01 0.01 0.01 93 1009.8
20191015163032 42 63 1.0 10.0 0.01 0.01 0.01 93 1010.1
20191015161513 42 121 1.0 9.0 0.01 0.01 0.01 92 1010.7
20191015160044 42 98 1.0 8.0 0.01 0.01 0.01 92 1010.9
20191015154515 42 0 1.0 10.0 0.00 0.00 0.00 90 1011.5
20191015153027 42 0 0.0 7.0 0.00 0.00 0.00 88 1012.0
20191015151521 42 0 1.0 9.0 0.00 0.00 0.00 85 1012.7
20191015150014 42 90 2.0 7.0 0.00 0.00 0.00 86 1012.4
20191015144516 41 73 1.0 8.0 0.00 0.00 0.00 89 1012.3
20191015143011 40 0 0.0 5.0 0.00 0.00 0.00 90 1012.8
20191015141514 39 0 0.0 4.0 0.00 0.00 0.00 91 1013.1
20191015140041 39 0 0.0 5.0 0.00 0.00 0.00 91 1012.9
20191015134516 38 0 1.0 7.0 0.00 0.00 0.00 90 1012.6
20191015133035 38 103 0.0 5.0 0.00 0.00 0.00 91 1013.1
20191015131524 38 99 1.0 9.0 0.00 0.00 0.00 91 1013.3
20191015130058 37 100 1.0 7.0 0.00 0.00 0.00 93 1013.3
20191015124538 37 0 1.0 7.0 0.00 0.00 0.00 94 1013.8
20191015123032 36 0 0.0 6.0 0.00 0.00 0.00 95 1014.3
20191015121531 35 182 1.0 7.0 0.00 0.00 0.00 96 1014.4
20191015120012 35 0 0.0 7.0 0.00 0.00 0.00 96 1014.2
20191015114559 35 0 0.0 2.0 0.00 0.00 0.00 96 1014.6
20191015113017 35 90 1.0 6.0 0.00 0.00 0.00 97 1015.1
20191015111540 34 0 0.0 3.0 0.00 0.00 0.00 97 1015.4
20191015110040 34 0 0.0 2.0 0.00 0.00 0.00 97 1015.4
20191015104555 33 0 0.0 2.0 0.00 0.00 0.00 97 1015.6
20191015103030 33 0 0.0 2.0 0.00 0.00 0.00 97 1015.8
20191015101515 33 0 0.0 3.0 0.00 0.00 0.00 96 1016.0
20191015100021 33 0 0.0 2.0 0.00 0.00 0.00 96 1016.3
20191015094515 33 0 0.0 2.0 0.00 0.00 0.00 96 1016.5
20191015093040 33 136 0.0 2.0 0.00 0.00 0.00 96 1016.5
20191015091515 34 131 0.0 3.0 0.00 0.00 0.00 96 1016.6
20191015090042 34 0 0.0 3.0 0.00 0.00 0.00 96 1016.7
20191015084547 34 0 0.0 2.0 0.00 0.00 0.00 96 1016.8
20191015083050 34 0 0.0 2.0 0.00 0.00 0.00 96 1016.9
20191015081526 34 0 0.0 1.0 0.00 0.00 0.00 96 1017.0
20191015080057 34 0 0.0 1.0 0.00 0.00 0.00 96 1017.0
20191015074524 34 0 0.0 2.0 0.00 0.00 0.00 95 1017.2
20191015073014 35 0 0.0 2.0 0.00 0.00 0.00 95 1017.1
20191015071527 35 0 0.0 1.0 0.00 0.00 0.00 95 1017.4
20191015070017 35 0 0.0 1.0 0.00 0.00 0.00 95 1017.3
20191015064518 35 0 0.0 0.0 0.00 0.00 0.00 94 1017.5
20191015063050 35 0 0.0 0.0 0.00 0.00 0.00 94 1017.5
20191015061534 36 0 0.0 0.0 0.00 0.00 0.00 94 1017.3
20191015060025 36 0 0.0 1.0 0.00 0.00 0.00 94 1017.3
20191015054517 36 0 0.0 3.0 0.00 0.00 0.00 94 1017.5
20191015053016 36 200 0.0 2.0 0.00 0.00 0.00 94 1017.5
20191015051512 36 206 0.0 2.0 0.00 0.00 0.00 94 1017.6
20191015050036 36 0 0.0 0.0 0.00 0.00 0.00 94 1017.5
20191015044554 37 0 0.0 0.0 0.00 0.00 0.00 95 1017.6
20191015043023 36 185 0.0 3.0 0.00 0.00 0.00 95 1017.5
20191015041533 36 0 0.0 0.0 0.00 0.00 0.00 95 1017.2
20191015040023 36 0 0.0 2.0 0.00 0.00 0.00 94 1017.4
20191015034515 36 0 0.0 2.0 0.00 0.00 0.00 94 1017.4
20191015033033 36 0 0.0 3.0 0.00 0.00 0.00 94 1017.4
20191015031525 36 0 0.0 3.0 0.00 0.00 0.00 94 1017.6
20191015030015 36 0 0.0 2.0 0.00 0.00 0.00 93 1017.5
20191015024523 36 0 0.0 2.0 0.00 0.00 0.00 93 1017.5
20191015023012 36 0 0.0 3.0 0.00 0.00 0.00 92 1017.4
20191015021523 37 0 0.0 2.0 0.00 0.00 0.00 92 1017.5
20191015020019 37 0 0.0 3.0 0.00 0.00 0.00 92 1017.3
20191015014518 37 201 0.0 3.0 0.00 0.00 0.00 91 1017.3
20191015013027 38 202 0.0 3.0 0.00 0.00 0.00 90 1017.3
20191015011522 38 0 0.0 3.0 0.00 0.00 0.00 89 1017.2
20191015010015 39 0 0.0 3.0 0.00 0.00 0.00 88 1017.1
20191015004522 40 0 0.0 2.0 0.00 0.00 0.00 87 1017.1
20191015003013 40 0 0.0 2.0 0.00 0.00 0.00 85 1017.0
20191015001515 41 0 0.0 2.0 0.00 0.00 0.00 84 1016.9
20191015000010 42 0 0.0 4.0 0.00 0.00 0.00 81 1017.0
20191014234513 43 0 1.0 6.0 0.00 0.02 0.00 77 1017.0
20191014233023 44 194 1.0 8.0 0.00 0.02 0.00 76 1016.7
20191014231516 44 202 2.0 7.0 0.00 0.02 0.00 75 1016.7
20191014230039 44 0 2.0 8.0 0.00 0.02 0.00 73 1016.6
20191014224550 44 198 1.0 8.0 0.00 0.03 0.00 72 1016.6
20191014223018 45 0 0.0 10.0 0.00 0.03 0.00 70 1016.6
20191014221517 45 222 3.0 9.0 0.00 0.03 0.00 68 1016.5
20191014220013 45 234 2.0 10.0 0.00 0.03 0.00 71 1016.4
20191014214520 45 212 3.0 12.0 0.00 0.03 0.00 73 1016.3
20191014213016 45 231 3.0 11.0 0.00 0.03 0.00 72 1016.4
20191014211541 45 195 5.0 12.0 0.00 0.03 0.00 74 1016.5
20191014210137 45 221 5.0 12.0 0.00 0.03 0.00 74 1016.5
20191014204600 46 237 3.0 15.0 0.00 0.03 0.00 73 1016.4
20191014203018 46 188 3.0 11.0 0.00 0.03 0.00 74 1016.3
20191014201527 45 223 4.0 17.0 0.00 0.03 0.00 71 1016.5
20191014200043 46 212 4.0 15.0 0.00 0.03 0.00 73 1016.3
20191014194513 45 208 5.0 15.0 0.00 0.03 0.00 72 1016.5
20191014193055 45 242 4.0 11.0 0.00 0.03 0.00 72 1016.3
20191014191514 45 239 2.0 8.0 0.00 0.03 0.00 70 1016.4
20191014190054 46 240 3.0 12.0 0.00 0.03 0.00 71 1016.3
20191014184511 45 244 3.0 13.0 0.00 0.03 0.00 72 1016.2
20191014183020 45 238 5.0 13.0 0.00 0.03 0.00 71 1016.1
20191014181520 45 202 4.0 12.0 0.00 0.03 0.00 72 1016.2
20191014180014 45 190 3.0 13.0 0.00 0.03 0.00 73 1016.2
20191014174511 46 202 4.0 11.0 0.00 0.03 0.00 75 1016.1
20191014173011 46 176 4.0 13.0 0.00 0.03 0.00 73 1016.2
20191014171513 46 211 3.0 10.0 0.00 0.03 0.00 76 1016.0